Terug naar catalogus

COSMOS 2456

GLONASS

ActiefNavigatieMEO
NORAD 36111·PAYLOAD·🇷🇺 Russia

Gelanceerd Dec 14, 2009 vanaf Baikonur Cosmodrome

Loading…

Volgende Passages (komende 24 uur)

TLE

VersSource: CelesTrak SupGP

Epoch: Sep 12, 2026, 23:59 UTC

1 36111C 09070A   26255.99979167  .00000000  00000+0  00000+0 0  2558
2 36111  65.0678  67.9789 0001443 347.6548 315.8235  2.13103838    18

Volg COSMOS 2456 in realtime met AllMySat

Download on the App Store